timestamp,surface_pressure_avg,surface_temp_avg,battery_voltage,lat,long
2020-01-25 00:09:01+00:00,355.1046,0.7,12.73,47.84626,-54.09684
2020-01-25 00:19:01+00:00,352.0129,0.7,12.65,47.84626,-54.09684
2020-01-25 00:29:01+00:00,348.6663,0.7,12.65,47.84626,-54.09684
2020-01-25 00:39:01+00:00,345.6263,0.7,12.65,47.84626,-54.09684
2020-01-25 00:49:01+00:00,339.3229,0.7,12.65,47.84626,-54.09684
2020-01-25 00:59:01+00:00,335.8296,0.7,12.65,47.84626,-54.09684
2020-01-25 01:09:01+00:00,335.1930000000001,0.7,12.65,47.84626,-54.09684
2020-01-25 01:19:01+00:00,328.8613,0.7,12.65,47.84626,-54.09684
2020-01-25 01:29:01+00:00,325.0646,0.7,12.65,47.84626,-54.09684
2020-01-25 01:39:01+00:00,323.1146,0.7,12.65,47.84626,-54.09684
2020-01-25 01:49:01+00:00,319.6663,0.7,12.65,47.84626,-54.09684
2020-01-25 01:59:01+00:00,309.788,0.7,12.65,47.84626,-54.09684
2020-01-25 02:09:01+00:00,307.033,0.7,12.65,47.84626,-54.09684
2020-01-25 02:19:01+00:00,302.723,0.7,12.57,47.84626,-54.09684
2020-01-25 02:29:01+00:00,291.9947,0.7,12.57,47.84626,-54.09684
2020-01-25 02:39:01+00:00,283.6697,0.69,12.57,47.84626,-54.09684
2020-01-25 02:49:01+00:00,279.8464,0.69,12.57,47.84626,-54.09684
2020-01-25 02:59:01+00:00,269.4947,0.65,12.57,47.84626,-54.09684
2020-01-25 03:09:01+00:00,257.0831,0.67,12.57,47.84626,-54.09684
2020-01-25 03:19:01+00:00,252.3797,0.69,12.57,47.84626,-54.09684
2020-01-25 03:29:01+00:00,246.0198,0.7,12.57,47.84626,-54.09684
2020-01-25 03:39:01+00:00,233.3415,0.6,12.57,47.84626,-54.09684
2020-01-25 03:49:01+00:00,225.2681,0.5,12.57,47.84626,-54.09684
2020-01-25 03:59:01+00:00,223.4414,0.5,12.57,47.84626,-54.09684
2020-01-25 04:09:01+00:00,215.4081,0.5,12.57,47.84626,-54.09684
2020-01-25 04:19:01+00:00,205.0764,0.49,12.57,47.84626,-54.09684
2020-01-25 04:29:01+00:00,204.5598,0.45,12.57,47.84626,-54.09684
2020-01-25 04:39:01+00:00,204.7914,0.45,12.57,47.84626,-54.09684
2020-01-25 04:49:01+00:00,196.8365,0.47,12.57,47.84626,-54.09684
2020-01-25 04:59:01+00:00,190.6815,0.46,12.57,47.84626,-54.09684
2020-01-25 05:09:01+00:00,193.4781,0.42,12.57,47.84626,-54.09684
2020-01-25 05:19:01+00:00,197.7281,0.4,12.49,47.84626,-54.09684
2020-01-25 05:29:01+00:00,194.3748,0.4,12.49,47.84626,-54.09684
2020-01-25 05:39:01+00:00,189.5081,0.4,12.49,47.84626,-54.09684
2020-01-25 05:49:01+00:00,191.2731,0.4,12.49,47.84626,-54.09684
2020-01-25 05:59:01+00:00,194.0182,0.4,12.49,47.84626,-54.09684
2020-01-25 06:09:01+00:00,192.4131,0.4,12.49,47.84626,-54.09684
2020-01-25 06:19:01+00:00,191.0281,0.4,12.49,47.84626,-54.09684
2020-01-25 06:29:01+00:00,196.3932,0.36,12.49,47.84626,-54.09684
2020-01-25 06:39:01+00:00,199.4565,0.3,12.49,47.84626,-54.09684
2020-01-25 06:49:01+00:00,197.0798,0.27,12.49,47.84626,-54.09684
2020-01-25 06:59:01+00:00,201.3214,0.2,12.49,47.84626,-54.09684
2020-01-25 07:09:01+00:00,208.3964,0.2,12.49,47.84626,-54.09684
2020-01-25 07:19:01+00:00,211.4598,0.2,12.41,47.84626,-54.09684
2020-01-25 07:29:01+00:00,213.8364,0.2,12.41,47.84626,-54.09684
2020-01-25 07:39:01+00:00,219.7647,0.2,12.41,47.84626,-54.09684
2020-01-25 07:49:01+00:00,223.2681,0.2,12.41,47.84626,-54.09684
2020-01-25 07:59:01+00:00,223.1497,0.2,12.41,47.84626,-54.09684
2020-01-25 08:09:01+00:00,227.1748,0.2,12.41,47.84626,-54.09684
2020-01-25 08:19:01+00:00,235.1414,0.2,12.41,47.84626,-54.09684
2020-01-25 08:29:01+00:00,237.7347,0.2,12.41,47.84626,-54.09684
2020-01-25 08:39:01+00:00,240.0197,0.23,12.41,47.84626,-54.09684
2020-01-25 08:49:01+00:00,248.5997,0.27,12.41,47.84626,-54.09684
2020-01-25 08:59:01+00:00,255.0981,0.29,12.41,47.84626,-54.09684
2020-01-25 09:09:01+00:00,255.6396,0.3,12.41,47.84626,-54.09684
2020-01-25 09:19:01+00:00,259.8198,0.3,12.41,47.84626,-54.09684
2020-01-25 09:29:01+00:00,271.1731,0.34,12.41,47.84626,-54.09684
2020-01-25 09:39:01+00:00,279.4314,0.4,12.41,47.84626,-54.09684
2020-01-25 09:49:01+00:00,283.1014,0.4,12.41,47.84626,-54.09684
2020-01-25 09:59:01+00:00,290.1563,0.42,12.41,47.84626,-54.09684
2020-01-25 10:09:01+00:00,300.4847,0.44,12.41,47.84626,-54.09684
2020-01-25 10:19:01+00:00,307.8813,0.45,12.41,47.84626,-54.09684
2020-01-25 10:29:01+00:00,316.278,0.4,12.41,47.84626,-54.09684
2020-01-25 10:39:01+00:00,326.9913,0.4,12.41,47.84626,-54.09684
2020-01-25 10:49:01+00:00,332.903,0.4,12.41,47.84626,-54.09684
2020-01-25 10:59:01+00:00,335.8280000000001,0.2,12.41,47.84626,-54.09684
2020-01-25 11:09:01+00:00,339.0729,0.0,12.41,47.84626,-54.09684
2020-01-25 11:19:01+00:00,342.1062,-0.1,12.41,47.84626,-54.09684
2020-01-25 11:29:01+00:00,347.1946,-0.1,12.41,47.84626,-54.09684
2020-01-25 11:39:01+00:00,350.8762,-0.1,12.41,47.84626,-54.09684
2020-01-25 11:49:01+00:00,354.3814,-0.2,12.41,47.84626,-54.09684
2020-01-25 11:59:01+00:00,357.4596,-0.3,12.41,47.84626,-54.09684
2020-01-25 12:09:01+00:00,360.448,-0.36,12.41,47.84626,-54.09684
2020-01-25 12:19:01+00:00,361.8779,-0.4,14.4,47.84626,-54.09684
2020-01-25 12:29:01+00:00,360.8395,-0.4,14.4,47.84626,-54.09684
2020-01-25 12:39:01+00:00,362.088,-0.4,14.4,47.84626,-54.09684
2020-01-25 12:49:01+00:00,360.0897,-0.31,14.4,47.84626,-54.09684
2020-01-25 12:59:01+00:00,354.9179,-0.29,14.4,47.84626,-54.09684
2020-01-25 13:09:01+00:00,351.3096,-0.3,14.4,47.84626,-54.09684
2020-01-25 13:19:01+00:00,347.37300000000016,-0.31,14.88,47.84626,-54.09684
2020-01-25 13:29:01+00:00,344.2363,-0.3,14.88,47.84626,-54.09684
2020-01-25 13:39:01+00:00,339.6879,-0.3,14.88,47.84626,-54.09684
2020-01-25 13:49:01+00:00,338.4713,-0.3,14.88,47.84626,-54.09684
2020-01-25 13:59:01+00:00,334.2013,-0.23,14.88,47.84626,-54.09684
2020-01-25 14:09:01+00:00,324.7847,-0.18,14.88,47.84626,-54.09684
2020-01-25 14:19:01+00:00,319.33299999999997,-0.14,14.88,47.84626,-54.09684
2020-01-25 14:29:01+00:00,318.6829,-0.16,14.88,47.84626,-54.09684
2020-01-25 14:39:01+00:00,308.783,-0.2,14.88,47.84626,-54.09684
2020-01-25 14:49:01+00:00,294.4964,-0.3,14.88,47.84626,-54.09684
2020-01-25 14:59:01+00:00,290.9448,-0.3,14.88,47.84626,-54.09684
2020-01-25 15:09:01+00:00,286.813,-0.24,14.88,47.84626,-54.09684
2020-01-25 15:19:01+00:00,273.5714,-0.25,14.88,47.84626,-54.09684
2020-01-25 15:29:01+00:00,262.0714,-0.22,14.88,47.84626,-54.09684
2020-01-25 15:39:01+00:00,258.5615,-0.2,14.88,47.84626,-54.09684
2020-01-25 15:49:01+00:00,249.0114,-0.2,14.88,47.84626,-54.09684
2020-01-25 15:59:01+00:00,237.1348,-0.2,14.88,47.84626,-54.09684
2020-01-25 16:09:01+00:00,230.5047,-0.2,14.88,47.84626,-54.09684
2020-01-25 16:19:01+00:00,222.9981,-0.2,14.8,47.84626,-54.09684
2020-01-25 16:29:01+00:00,210.6681,-0.25,14.8,47.84626,-54.09684
2020-01-25 16:39:01+00:00,200.7598,-0.3,14.8,47.84626,-54.09684
2020-01-25 16:49:01+00:00,198.8465,-0.35,14.8,47.84626,-54.09684
2020-01-25 16:59:01+00:00,196.0314,-0.3,14.8,47.84626,-54.09684
2020-01-25 17:09:01+00:00,187.9515,-0.2,14.8,47.84626,-54.09684
2020-01-25 17:19:01+00:00,181.8415,-0.2,14.64,47.84626,-54.09684
2020-01-25 17:29:01+00:00,182.2731,-0.21,14.64,47.84626,-54.09684
2020-01-25 17:39:01+00:00,182.5598,-0.2,14.64,47.84626,-54.09684
2020-01-25 17:49:01+00:00,176.7665,-0.2,14.64,47.84626,-54.09684
2020-01-25 17:59:01+00:00,172.1947,-0.2,14.64,47.84626,-54.09684
2020-01-25 18:09:01+00:00,173.1897,-0.2,14.64,47.84626,-54.09684
2020-01-25 18:19:01+00:00,173.0232,-0.2,14.56,47.84626,-54.09684
2020-01-25 18:29:01+00:00,171.6714,-0.3,14.56,47.84626,-54.09684
2020-01-25 18:39:01+00:00,174.3682,-0.26,14.56,47.84626,-54.09684
2020-01-25 18:49:01+00:00,174.3598,-0.2,14.56,47.84626,-54.09684
2020-01-25 18:59:01+00:00,172.9148,-0.12,14.56,47.84626,-54.09684
2020-01-25 19:09:01+00:00,175.1465,-0.14,14.56,47.84626,-54.09684
2020-01-25 19:19:01+00:00,179.0865,-0.11,14.32,47.84626,-54.09684
2020-01-25 19:29:01+00:00,182.3815,-0.1,14.32,47.84626,-54.09684
2020-01-25 19:39:01+00:00,185.8765,0.06,14.32,47.84626,-54.09684
2020-01-25 19:49:01+00:00,190.8264,0.24,14.32,47.84626,-54.09684
2020-01-25 19:59:01+00:00,194.7598,0.39,14.32,47.84626,-54.09684
2020-01-25 20:09:01+00:00,200.2314,0.57,14.32,47.84626,-54.09684
2020-01-25 20:19:01+00:00,206.2448,0.68,13.76,47.84626,-54.09684
2020-01-25 20:29:01+00:00,206.9765,0.7,13.76,47.84626,-54.09684
2020-01-25 20:39:01+00:00,207.4098,0.7,13.76,47.84626,-54.09684
2020-01-25 20:49:01+00:00,213.1348,0.69,13.76,47.84626,-54.09684
2020-01-25 20:59:01+00:00,220.2647,0.68,13.76,47.84626,-54.09684
2020-01-25 21:09:01+00:00,222.7248,0.7,13.76,47.84626,-54.09684
2020-01-25 21:19:01+00:00,228.8131,0.7,13.29,47.84626,-54.09684
2020-01-25 21:29:01+00:00,240.2581,0.7,13.29,47.84626,-54.09684
2020-01-25 21:39:01+00:00,246.9315,0.73,13.29,47.84626,-54.09684
2020-01-25 21:49:01+00:00,252.6364,0.78,13.29,47.84626,-54.09684
2020-01-25 21:59:01+00:00,260.088,0.8,13.29,47.84626,-54.09684
2020-01-25 22:09:01+00:00,271.308,0.8,13.29,47.84626,-54.09684
2020-01-25 22:19:01+00:00,276.1313,0.8,12.89,47.84626,-54.09684
2020-01-25 22:29:01+00:00,281.0481,0.8,12.89,47.84626,-54.09684
2020-01-25 22:39:01+00:00,290.0364,0.8,12.89,47.84626,-54.09684
2020-01-25 22:49:01+00:00,300.6681,0.8,12.89,47.84626,-54.09684
2020-01-25 22:59:01+00:00,304.723,0.8,12.89,47.84626,-54.09684
2020-01-25 23:09:01+00:00,313.3664,0.7,12.89,47.84626,-54.09684
2020-01-25 23:19:01+00:00,322.358,0.7,12.65,47.84626,-54.09684
2020-01-25 23:29:01+00:00,324.6996,0.5,12.65,47.84626,-54.09684
2020-01-25 23:39:01+00:00,323.2562,0.4,12.65,47.84626,-54.09684
2020-01-25 23:49:01+00:00,326.1248,0.4,12.65,47.84626,-54.09684
2020-01-25 23:59:01+00:00,329.0897,0.4,12.65,47.84626,-54.09684
